Weather History for Perryton, TX

Change the Weather History Date:

Thursday, February 14, 2013

  Actual Average Record
Temperature  
Mean Temperature 32 °F -  
Max Temperature 44 °F 53 °F 74 °F (1988)
Min Temperature 21 °F 22 °F 0 °F (1978)
Degree Days  
Heating Degree Days 32    
Moisture  
Dew Point 28 °F    
Average Humidity 78    
Maximum Humidity 93    
Minimum Humidity 61    
Precipitation  
Precipitation 0.00 in - - ()
Sea Level Pressure  
Sea Level Pressure 30.10 in    
Wind  
Wind Speed 8 mph (North)    
Max Wind Speed 18 mph    
Max Gust Speed 25 mph    
Visibility 10 miles    
Events      
Averages and records for this station are not official NWS values.
T = Trace of Precipitation, MM = Missing Value Source: NWS Daily Summary

Daily Weather History Graph

Daily Weather History Graph

Search for Another Location

Airport:

Trip Planner

Search our weather history database for the weather conditions in past years. The results will help you decide how hot, cold, wet, or windy it might be!

Date:

Astronomy

Feb. 14, 2013 Rise Set
Actual Time 7:31 AM CST 6:23 PM CST
Civil Twilight 7:05 AM CST 6:49 PM CST
Nautical Twilight 6:34 AM CST 7:19 PM CST
Astronomical Twilight 6:05 AM CST 7:49 PM CST
Moon 9:44 AM CST (2/14) 11:17 PM CST (2/14)
Length of Visible Light 11h 44m
Length of Day
10h 51m
Waxing Crescent, 22% of the Moon is Illuminated
Feb 14
Waxing Crescent
Feb 17
First Quarter
Feb 25
Full
Mar 4
Last Quarter
Mar 11
New

Hourly Weather History & Observations

Time (CST) Temp. Windchill Dew Point Humidity Pressure Visibility Wind Dir Wind Speed Gust Speed Precip Events Conditions
12:15 AM 28.4 °F 21.2 °F 23.0 °F 80% 30.00 in 10.0 mi West 6.9 mph - N/A   Clear
12:35 AM 28.4 °F 22.2 °F 24.8 °F 86% 30.00 in 10.0 mi West 5.8 mph - N/A   Clear
12:55 AM 28.4 °F 21.2 °F 23.0 °F 80% 30.00 in 10.0 mi West 6.9 mph - N/A   Clear
1:15 AM 26.6 °F 18.2 °F 23.0 °F 86% 30.01 in 10.0 mi West 8.1 mph - N/A   Clear
1:35 AM 28.4 °F 20.4 °F 23.0 °F 80% 30.01 in 10.0 mi West 8.1 mph - N/A   Clear
1:55 AM 26.6 °F 18.2 °F 23.0 °F 86% 30.01 in 10.0 mi West 8.1 mph - N/A   Clear
2:15 AM 28.4 °F 19.7 °F 23.0 °F 80% 30.01 in 10.0 mi West 9.2 mph - N/A   Clear
2:35 AM 26.6 °F 17.5 °F 23.0 °F 86% 30.01 in 10.0 mi West 9.2 mph - N/A   Clear
2:55 AM 26.6 °F 22.6 °F 21.2 °F 80% 30.00 in 10.0 mi WNW 3.5 mph - N/A   Clear
3:15 AM 26.6 °F 20.0 °F 21.2 °F 80% 30.00 in 10.0 mi West 5.8 mph - N/A   Clear
3:35 AM 23.0 °F 13.9 °F 19.4 °F 86% 30.01 in 10.0 mi NW 8.1 mph - N/A   Clear
3:55 AM 23.0 °F 12.4 °F 19.4 °F 86% 30.00 in 10.0 mi WNW 10.4 mph - N/A   Clear
4:15 AM 24.8 °F 16.1 °F 21.2 °F 86% 30.00 in 10.0 mi NW 8.1 mph - N/A   Clear
4:35 AM 23.0 °F 13.1 °F 19.4 °F 86% 30.00 in 10.0 mi WNW 9.2 mph - N/A   Clear
4:55 AM 23.0 °F 12.4 °F 21.2 °F 93% 30.00 in 10.0 mi WNW 10.4 mph - N/A   Clear
5:15 AM 24.8 °F 16.1 °F 21.2 °F 86% 30.01 in 10.0 mi NW 8.1 mph - N/A   Clear
5:35 AM 23.0 °F 13.1 °F 19.4 °F 86% 30.01 in 10.0 mi NNW 9.2 mph - N/A   Clear
5:55 AM 23.0 °F 13.1 °F 19.4 °F 86% 30.01 in 10.0 mi NNW 9.2 mph - N/A   Clear
6:15 AM 21.2 °F 11.7 °F 19.4 °F 93% 30.02 in 10.0 mi NW 8.1 mph - N/A   Clear
6:35 AM 23.0 °F 12.4 °F 19.4 °F 86% 30.03 in 10.0 mi NW 10.4 mph - N/A   Clear
6:55 AM 23.0 °F 12.4 °F 19.4 °F 86% 30.04 in 10.0 mi NNW 10.4 mph - N/A   Clear
7:15 AM 23.0 °F 15.8 °F 19.4 °F 86% 30.04 in 10.0 mi NNW 5.8 mph - N/A   Clear
7:35 AM 23.0 °F 14.7 °F 19.4 °F 86% 30.05 in 10.0 mi NNW 6.9 mph - N/A   Clear
7:55 AM 23.0 °F 14.7 °F 19.4 °F 86% 30.05 in 10.0 mi NW 6.9 mph - N/A   Clear
8:15 AM 24.8 °F 16.1 °F 21.2 °F 86% 30.05 in 10.0 mi NNW 8.1 mph - N/A   Clear
8:35 AM 26.6 °F 19.1 °F 21.2 °F 80% 30.06 in 10.0 mi NNW 6.9 mph - N/A   Clear
8:55 AM 28.4 °F 21.2 °F 24.8 °F 86% 30.08 in 10.0 mi NNW 6.9 mph - N/A   Clear
9:15 AM 32.0 °F 27.5 °F 26.6 °F 80% 30.09 in 10.0 mi NNW 4.6 mph - N/A   Clear
9:35 AM 32.0 °F 26.4 °F 28.4 °F 87% 30.10 in 10.0 mi NW 5.8 mph - N/A   Clear
9:55 AM 33.8 °F 27.7 °F 28.4 °F 81% 30.10 in 10.0 mi NNW 6.9 mph - N/A   Clear
10:15 AM 35.6 °F 29.2 °F 30.2 °F 81% 30.09 in 10.0 mi North 8.1 mph - N/A   Clear
10:35 AM 37.4 °F 32.1 °F 30.2 °F 75% 30.09 in 10.0 mi North 6.9 mph - N/A   Clear
10:55 AM 37.4 °F 32.1 °F 32.0 °F 81% 30.09 in 10.0 mi NNE 6.9 mph - N/A   Clear
11:15 AM 41.0 °F 36.4 °F 32.0 °F 70% 30.10 in 10.0 mi NNE 6.9 mph - N/A   Clear
11:35 AM 41.0 °F 36.4 °F 32.0 °F 70% 30.10 in 10.0 mi North 6.9 mph - N/A   Scattered Clouds
11:55 AM 41.0 °F 37.1 °F 32.0 °F 70% 30.10 in 10.0 mi NNE 5.8 mph - N/A   Mostly Cloudy
12:15 PM 41.0 °F 38.0 °F 32.0 °F 70% 30.10 in 10.0 mi NNE 4.6 mph - N/A   Scattered Clouds
12:35 PM 42.8 °F 39.3 °F 32.0 °F 66% 30.10 in 10.0 mi NNE 5.8 mph - N/A   Clear
12:55 PM 42.8 °F 39.3 °F 32.0 °F 66% 30.09 in 10.0 mi North 5.8 mph - N/A   Clear
1:15 PM 42.8 °F 38.0 °F 32.0 °F 66% 30.08 in 10.0 mi North 8.1 mph - N/A   Clear
1:35 PM 44.6 °F 40.2 °F 33.8 °F 66% 30.07 in 10.0 mi NE 8.1 mph - N/A   Clear
1:55 PM 42.8 °F 38.0 °F 33.8 °F 70% 30.07 in 10.0 mi ENE 8.1 mph - N/A   Scattered Clouds
2:15 PM 44.6 °F 41.4 °F 33.8 °F 66% 30.07 in 10.0 mi ENE 5.8 mph - N/A   Mostly Cloudy
2:35 PM 44.6 °F 40.7 °F 33.8 °F 66% 30.07 in 10.0 mi NE 6.9 mph - N/A   Overcast
2:55 PM 44.6 °F 41.4 °F 33.8 °F 66% 30.08 in 10.0 mi NNE 5.8 mph - N/A   Overcast
3:15 PM 44.6 °F 40.2 °F 33.8 °F 66% 30.08 in 10.0 mi NNE 8.1 mph - N/A   Mostly Cloudy
3:35 PM 44.6 °F 40.2 °F 33.8 °F 66% 30.09 in 10.0 mi NE 8.1 mph - N/A   Scattered Clouds
3:55 PM 44.6 °F 40.7 °F 33.8 °F 66% 30.09 in 10.0 mi ENE 6.9 mph - N/A   Scattered Clouds
4:15 PM 44.6 °F 38.8 °F 33.8 °F 66% 30.10 in 10.0 mi NE 11.5 mph - N/A   Scattered Clouds
4:35 PM 44.6 °F 38.4 °F 32.0 °F 61% 30.10 in 10.0 mi NE 12.7 mph - N/A   Clear
4:55 PM 44.6 °F 37.8 °F 32.0 °F 61% 30.10 in 10.0 mi NE 15.0 mph - N/A   Mostly Cloudy
5:15 PM 44.6 °F 37.4 °F 32.0 °F 61% 30.11 in 10.0 mi NE 16.1 mph - N/A   Overcast
5:35 PM 42.8 °F 35.8 °F 32.0 °F 66% 30.12 in 10.0 mi NE 13.8 mph - N/A   Overcast
5:55 PM 42.8 °F 37.0 °F 32.0 °F 66% 30.14 in 10.0 mi NNE 10.4 mph - N/A   Overcast
6:15 PM 42.8 °F 36.6 °F 32.0 °F 66% 30.14 in 10.0 mi NE 11.5 mph - N/A   Overcast
6:35 PM 41.0 °F 35.2 °F 32.0 °F 70% 30.15 in 10.0 mi NE 9.2 mph - N/A   Overcast
6:55 PM 41.0 °F 36.4 °F 32.0 °F 70% 30.18 in 10.0 mi NE 6.9 mph - N/A   Overcast
7:15 PM 39.2 °F 35.0 °F 32.0 °F 75% 30.19 in 10.0 mi NNE 5.8 mph - N/A   Overcast
7:35 PM 39.2 °F 32.0 °F 32.0 °F 75% 30.21 in 10.0 mi NNE 11.5 mph - N/A   Mostly Cloudy
7:55 PM 39.2 °F 31.6 °F 32.0 °F 75% 30.22 in 10.0 mi NNE 12.7 mph - N/A   Mostly Cloudy
8:15 PM 39.2 °F 32.0 °F 32.0 °F 75% 30.23 in 10.0 mi NNE 11.5 mph - N/A   Overcast
8:35 PM 39.2 °F 31.2 °F 33.8 °F 81% 30.24 in 10.0 mi NNE 13.8 mph 19.6 mph N/A   Overcast
8:55 PM 37.4 °F 27.5 °F 33.8 °F 87% 30.24 in 10.0 mi NNE 18.4 mph 25.3 mph N/A   Overcast
9:15 PM 33.8 °F 23.5 °F 32.0 °F 93% 30.25 in 10.0 mi NNE 16.1 mph - N/A   Overcast
9:35 PM 35.6 °F 25.5 °F 32.0 °F 87% 30.25 in 10.0 mi NNE 17.3 mph - N/A   Overcast
9:55 PM 35.6 °F 26.6 °F 32.0 °F 87% 30.26 in 10.0 mi North 13.8 mph - N/A   Overcast
10:15 PM 35.6 °F 27.1 °F 30.2 °F 81% 30.27 in 10.0 mi North 12.7 mph - N/A   Overcast
10:35 PM 35.6 °F 27.5 °F 30.2 °F 81% 30.27 in 10.0 mi NNE 11.5 mph - N/A   Overcast
10:55 PM 35.6 °F 27.5 °F 30.2 °F 81% 30.28 in 10.0 mi North 11.5 mph - N/A   Overcast
11:15 PM 33.8 °F 24.8 °F 30.2 °F 87% 30.29 in 10.0 mi North 12.7 mph - N/A   Overcast
11:35 PM 33.8 °F 24.8 °F 30.2 °F 87% 30.30 in 10.0 mi North 12.7 mph - N/A   Overcast
11:55 PM 33.8 °F 24.8 °F 30.2 °F 87% 30.31 in 10.0 mi North 12.7 mph - N/A   Overcast